Weather History for Orange, MA

Change the Weather History Date:

Friday, February 15, 2013

  Actual Average Record
Temperature  
Mean Temperature 32 °F -  
Max Temperature 46 °F 33 °F 52 °F (2006)
Min Temperature 17 °F 13 °F -6 °F (2003)
Degree Days  
Heating Degree Days 34    
Moisture  
Dew Point 22 °F    
Average Humidity 82    
Maximum Humidity 96    
Minimum Humidity 48    
Precipitation  
Precipitation 0.00 in - - ()
Sea Level Pressure  
Sea Level Pressure 29.95 in    
Wind  
Wind Speed 2 mph (South)    
Max Wind Speed 10 mph    
Max Gust Speed -    
Visibility 6 miles    
Events Fog    
Averages and records for this station are not official NWS values.
T = Trace of Precipitation, MM = Missing Value Source: NWS Daily Summary

Daily Weather History Graph

Daily Weather History Graph

Search for Another Location

Airport:

Trip Planner

Search our weather history database for the weather conditions in past years. The results will help you decide how hot, cold, wet, or windy it might be!

Date:

Astronomy

Feb. 15, 2013 Rise Set
Actual Time 6:45 AM EST 5:21 PM EST
Civil Twilight 6:16 AM EST 5:50 PM EST
Nautical Twilight 5:43 AM EST 6:23 PM EST
Astronomical Twilight 5:11 AM EST 6:56 PM EST
Moon 9:11 AM EST (2/15) 11:28 PM EST (2/15)
Length of Visible Light 11h 33m
Length of Day
10h 35m
Waxing Crescent, 30% of the Moon is Illuminated
Feb 15
Waxing Crescent
Feb 17
First Quarter
Feb 25
Full
Mar 4
Last Quarter
Mar 11
New

Hourly Weather History & Observations

Time (EST) Temp. Windchill Dew Point Humidity Pressure Visibility Wind Dir Wind Speed Gust Speed Precip Events Conditions
12:52 AM 19.9 °F - 19.0 °F 96% 29.97 in 5.0 mi Calm Calm - N/A   Clear
1:34 AM 19.4 °F - 17.6 °F 93% 29.95 in 1.8 mi Calm Calm - N/A   Clear
1:36 AM 19.4 °F - 17.6 °F 93% 29.95 in 1.0 mi Calm Calm - N/A   Clear
1:52 AM 19.9 °F - 18.0 °F 92% 29.98 in 0.5 mi Calm Calm - N/A Fog Light Freezing Fog
1:56 AM 19.4 °F - 17.6 °F 93% 29.96 in 1.8 mi Calm Calm - N/A   Clear
2:02 AM 17.6 °F - 15.8 °F 93% 29.95 in 0.8 mi Calm Calm - N/A   Mist
2:12 AM 17.6 °F - 15.8 °F 93% 29.96 in 1.2 mi Calm Calm - N/A   Partly Cloudy
2:19 AM 17.6 °F - 15.8 °F 93% 29.96 in 1.5 mi Calm Calm - N/A   Partly Cloudy
2:35 AM 17.6 °F - 15.8 °F 93% 29.96 in 1.0 mi Calm Calm - N/A   Partly Cloudy
2:42 AM 17.6 °F - 15.8 °F 93% 29.95 in 0.5 mi Calm Calm - N/A Fog Light Freezing Fog
2:47 AM 17.6 °F - 15.8 °F 93% 29.95 in 1.8 mi Calm Calm - N/A   Clear
2:52 AM 18.0 °F - 16.0 °F 92% 29.97 in 3.0 mi Calm Calm - N/A   Clear
3:52 AM 19.0 °F - 16.0 °F 88% 29.97 in 4.0 mi Calm Calm - N/A   Partly Cloudy
4:52 AM 19.9 °F - 18.0 °F 92% 29.96 in 7.0 mi Calm Calm - N/A   Overcast
5:45 AM 19.4 °F - 17.6 °F 93% 29.94 in 7.0 mi Calm Calm - N/A   Partly Cloudy
5:52 AM 18.0 °F - 16.0 °F 92% 29.97 in 7.0 mi Calm Calm - N/A   Partly Cloudy
6:52 AM 19.0 °F 9.0 °F 16.0 °F 88% 29.97 in 4.0 mi NW 8.1 mph - N/A   Overcast
7:52 AM 30.9 °F 22.2 °F 28.9 °F 92% 29.96 in 5.0 mi South 10.4 mph - N/A   Clear
8:52 AM 34.0 °F 28.8 °F 28.0 °F 79% 29.98 in 7.0 mi South 5.8 mph - N/A   Clear
9:52 AM 37.0 °F 31.0 °F 28.0 °F 70% 29.98 in 9.0 mi South 8.1 mph - N/A   Clear
10:52 AM 39.9 °F 34.5 °F 28.0 °F 63% 29.97 in 10.0 mi South 8.1 mph - N/A   Clear
11:52 AM 43.0 °F 38.2 °F 28.0 °F 56% 29.94 in 10.0 mi South 8.1 mph - N/A   Clear
12:52 PM 46.0 °F 42.5 °F 28.0 °F 50% 29.91 in 10.0 mi South 6.9 mph - N/A   Clear
1:52 PM 46.0 °F 41.9 °F 28.9 °F 51% 29.89 in 10.0 mi South 8.1 mph - N/A   Clear
2:52 PM 46.9 °F - 28.0 °F 48% 29.89 in 10.0 mi South 8.1 mph - N/A   Clear
3:52 PM 46.0 °F 41.0 °F 28.9 °F 51% 29.89 in 10.0 mi SSW 10.4 mph - N/A   Clear
4:52 PM 45.0 °F 40.6 °F 30.0 °F 56% 29.90 in 10.0 mi South 8.1 mph - N/A   Clear
5:52 PM 36.0 °F 33.3 °F 28.9 °F 76% 29.93 in 10.0 mi SSW 3.5 mph - N/A   Mostly Cloudy
6:52 PM 37.0 °F - 28.9 °F 73% 29.94 in 10.0 mi Calm Calm - N/A   Scattered Clouds
7:52 PM 32.0 °F - 28.0 °F 85% 29.94 in 10.0 mi Calm Calm - N/A   Clear
8:52 PM 28.9 °F - 27.0 °F 92% 29.95 in 9.0 mi Calm Calm - N/A   Partly Cloudy
9:52 PM 27.0 °F - 26.1 °F 96% 29.96 in 9.0 mi Calm Calm - N/A   Mostly Cloudy
10:52 PM 28.0 °F - 26.1 °F 92% 29.95 in 8.0 mi Calm Calm - N/A   Overcast
11:52 PM 28.9 °F - 27.0 °F 92% 29.95 in 9.0 mi Calm Calm - N/A   Overcast